Regional Weather Roundup
Issued by NWS Upton, NY

Current Version | Previous Version | Graphics & Text | Print | Product List | Glossary Off
Versions: 1 2 3 4 5 6 7 8 9 10 11 12 13 14 15 16 17 18 19 20 21 22 23 24 25 26 27 28 29 30 31 32 33 34 35 36 37 38 39 40 41 42 43 44 45 46 47 48 49 50

000
ASUS41 KOKX 052318
RWROKX

REGIONAL WEATHER ROUNDUP
NATIONAL WEATHER SERVICE NEW YORK NY
700 PM EDT SUN JUL 05 2015

NOTE: "FAIR" INDICATES FEW OR NO CLOUDS BELOW 12,000 FEET WITH NO
SIGNIFICANT WEATHER AND/OR OBSTRUCTIONS TO VISIBILITY.

NYZ071-072-176-178-NJZ106-104-060000-
NEW YORK CITY METRO AREA


CITY           SKY/WX    TMP DP  RH WIND       PRES   REMARKS
CENTRAL PARK   SUNNY     80  61  52 S3        30.13R
LAGUARDIA APRT PTSUNNY   80  62  54 S9        30.10R
KENNEDY INTL   PTSUNNY   76  63  64 S17       30.12R
NEWARK/LIBERTY PTSUNNY   83  59  44 W6        30.10R
BRNX BOT. GARD   N/A     77  63  61 E2        30.12R
TETERBORO      MOSUNNY   81  62  52 S9        30.08S
$$

NYZ177-179-078>081-060000-
LONG ISLAND NEW YORK

CITY           SKY/WX    TMP DP  RH WIND       PRES   REMARKS
FARMINGDALE    SUNNY     75  64  68 S10G22    30.12S
ISLIP          PTSUNNY   75  63  66 S9        30.11R
SHIRLEY        SUNNY     75  63  66 SW8       30.13R
WESTHAMPTON    SUNNY     73  62  68 SW8       30.13S
MONTAUK POINT    N/A     74  63  68 SW6       30.12S
$$

NYZ052-065-067-060000-
HUDSON VALLEY

CITY           SKY/WX    TMP DP  RH WIND       PRES   REMARKS
WHITE PLAINS   MOSUNNY   78  63  59 S7        30.11R
NEWBURGH       SUNNY     79  64  61 SW7       30.12S
MONTGOMERY     SUNNY     79  63  57 S7        30.09F
POUGHKEEPSIE   MOSUNNY   80  61  52 CALM      30.08F
ALBANY         MOSUNNY   79  59  50 W7        30.08S
$$

NJZ001-105-106-008-010-013-015-019>022-104-060000-
NEW JERSEY

CITY           SKY/WX    TMP DP  RH WIND       PRES   REMARKS
NEWARK/LIBERTY PTSUNNY   83  59  44 W6        30.10R
TETERBORO      MOSUNNY   81  62  52 S9        30.08S
CALDWELL       MOSUNNY   81  60  48 SW3       30.10S
MORRISTOWN     SUNNY     82  64  54 SW6       30.11S
SOMERVILLE     MOSUNNY   78  65  63 CALM      30.09S
SUSSEX         MOSUNNY   79  64  60 SW3       30.12R
ANDOVER          N/A     77  66  68 CALM      30.13R
TRENTON        MOSUNNY   81  63  54 NW5       30.10S
MILLVILLE      MOSUNNY   77  67  71 VRB3      30.12S
ATLANTIC CITY  MOSUNNY   77  65  66 SW9       30.12S
WRIGHTSTOWN    SUNNY     80  66  63 S3        30.08S
TOMS RIVER     MOSUNNY   79  64  61 S5        30.12S
BELMAR         SUNNY     77  64  65 S7        30.12R
$$

PAZ047>061-062-071-060000-
EASTERN PENNSYLVANIA

CITY           SKY/WX    TMP DP  RH WIND       PRES   REMARKS
PHILADELPHIA   MOSUNNY   83  64  52 SW8       30.11S
ALLENTOWN      MOSUNNY   78  63  59 SW5       30.11F
SCRANTON       MOSUNNY   80  56  43 CALM      30.13S
$$

CTZ002-004>006-009-010-012-RIZ004-006-007-MAZ004-011-015-060000-
SOUTHERN NEW ENGLAND
 IN CT

CITY           SKY/WX    TMP DP  RH WIND       PRES   REMARKS
BRADLEY INTL   SUNNY     81  57  43 NW5       30.08R
HARTFORD       SUNNY     83  53  35 SW7       30.08R
DANBURY        SUNNY     78  62  57 CALM      30.12S
WTRBRY/OXFORD  SUNNY     77  59  53 MISG      30.15R
BRIDGEPORT     SUNNY     78  66  66 S12       30.10R
MERIDEN        SUNNY     80  64  58 S8        30.09R
NEW HAVEN      MOSUNNY   77  62  59 S7        30.10S
CHESTER        FAIR      75  63  64 SW5       30.12S
GROTON         SUNNY     74  62  66 SW7       30.10R
WILLIMANTIC    SUNNY     79  65  62 SW7       30.09R

 IN RI

CITY           SKY/WX    TMP DP  RH WIND       PRES   REMARKS
PROVIDENCE     SUNNY     81  59  47 W8        30.09R
BLOCK ISLAND   SUNNY     72  61  68 SW14      30.11S
WESTERLY       SUNNY     75  63  66 SW7       30.11R

 IN MA

CITY           SKY/WX    TMP DP  RH WIND       PRES   REMARKS
BOSTON         NOT AVBL
WORCESTER      SUNNY     77  61  57 W6        30.12R
WESTFIELD      SUNNY     80  58  46 NW5       30.08S
PROVINCETOWN   SUNNY     75  18  11 S9        30.07S
NANTUCKET      SUNNY     68  63  84 SW9       30.11R
$$

ANZ330-335-338-340-345-350-353-355-060000-
COASTAL MARINE OBSERVATIONS


STATION/POSITION TIME  SKY/WX   TEMP    WIND        PRES    VSBY  WAVE
                                AIR SEA DIR/SP/G                  HT/PER
                 (UTC)          (F)     (DEG/KT/KT) (MB)    (MI)  (FT/S)
NY HARB ENTRANCE 2250            72 71  190/ 10/ 12 1019.7          3/ 8
4S FIRE IS       2203               71                N/A           3/ 8
20S FIRE ISLAND  2250            71 71  200/ 10/ 12 1019.8          3/ 8
GREAT SOUTH BAY  2215            73 76  240/ 12/ 14   N/A
23SW MTP         2250            70 69  230/ 10/ 12 1019.7          3/ 8
HUDSON CANYON    NOT AVBL
KINGS POINT      2200            76 68  200/ 11/ 12 1018.7
CENTRAL LI SOUND NOT AVBL
EASTERN LI SOUND 2200            69 65  240/  4/  6   N/A
ROBBINS REEF     2200            73     170/ 16/ 17 1018.2
$$


>>>>>>>>>>>>>>>>>>>>>>>>>>>> KEY <<<<<<<<<<<<<<<<<<<<<<<<<<<
>                                                          <
>     SKY/WX - SKY CONDITION/PRESENT WEATHER               <
>     TMP    - TEMPERATURE IN FAHRENHEIT                   <
>     DP     - DEWPOINT IN FAHRENHEIT                      <
>     RH     - RELATIVE HUMIDITY IN PERCENT                <
>     WIND   - DIRECTION AND SPEED IN MPH                  <
>     PRES   - MEAN SEA LEVEL PRESSURE IN INCHES OF HG     <
>     WCI    - WIND CHILL INDEX                            <
>     VSB    - VISIBILITY IN MILES                         <
>     HX     - HEAT INDEX                                  <
>     TC     - TEMPERATURE IN CELSIUS                      <
>     VRB    - VARIABLE WIND DIRECTION                     <
>                                                          <
>>>>>>>>>>>>>>>>>>>>>>>>>>>> KEY <<<<<<<<<<<<<<<<<<<<<<<<<<<





USA.gov is the U.S. government's official web portal to all federal, state and local government web resources and services.